COSMOS 2278

Last updated on Fri Sep 19 2025 00:02:15 GMT+0000 (Coordinated Universal Time)

1 23087U 94023A 25261.02842352 .00000212 00000+0 13572-3 0 9995 2 23087 71.0533 176.3236 0010698 287.7446 72.2509 14.14315645620390
UTC large
Height (km)
Speed (km/s)
/
Latitude / Longitude
Inclination (degrees)
Orbital Period (minutes)
Azimuth
Elevation
Range (km)
Doppler Factor

Next 0 passes for location: London (51.5072 / 0.1276)

Sorry there are no passes over London.